Flag for USA

Past Weather in Columbus Junction Gas Storage Area, Iowa, USA — Yesterday and Last 2 Weeks

Now
88 °F

Scattered clouds.


Feels Like: 90 °F
Forecast: 86 / 70 °F
Wind: 14 mph from South

Location: Fair Field

Current Time: Jul 15, 2019 at 3:50:17 pm

Latest Report: Jul 15, 2019 at 2:55 pm


Visibility: 10 mi

Pressure: 29.98 "Hg

Humidity: 49%

Dew Point: 66 °F

Location of Columbus Junction Gas Storage AreaLocation

Past Weather in Columbus Junction Gas Storage Area — Graph

°F

Columbus Junction Gas Storage Area Temperature Yesterday

Maximum temperature yesterday: 91 °F (at 1:15 pm)
Minimum temperature yesterday: 73 °F (at 5:35 am)
Average temperature yesterday: 84 °F

High & Low Weather Summary for the Past Weeks

 TemperatureHumidityPressure
High93 °F (Jul 2, 2:55 pm)100% (Jul 3, 2:35 am)30.12 "Hg (Jul 3, 2:35 am)
Low61 °F (Jul 12, 4:15 am)1% (Jun 30, 2:15 pm)29.82 "Hg (Jul 2, 5:55 pm)
Average79 °F65%29.99 "Hg
* Reported Jun 30 2:15 pm — Jul 15 2:35 pm, Columbus Junction Gas Storage Area. Weather by CustomWeather, © 2019

Note: Actual official high and low records may vary slightly from our data, if they occured in-between our weather recording intervals... More about our weather records

Advertising

Columbus Junction Gas Storage Area Weather History for the Previous 24 Hours

Scroll right to see more
 ConditionsComfort  
Time TempWeatherWind HumidityBarometerVisibility
2:35 pm
Mon, Jul 15
88 °FPartly sunny.17 mph46%29.98 "Hg10 mi
2:15 pm88 °FPassing clouds.16 mph49%29.99 "Hg10 mi
1:55 pm86 °FPassing clouds.21 mph49%29.99 "Hg10 mi
1:35 pm88 °FPassing clouds.17 mph49%29.99 "Hg10 mi
1:15 pm86 °FPassing clouds.18 mph49%30.00 "Hg10 mi
12:55 pm86 °FSunny.12 mph49%30.01 "Hg10 mi
12:35 pm86 °FSunny.13 mph49%30.01 "Hg10 mi
12:15 pm86 °FSunny.13 mph49%30.02 "Hg10 mi
11:55 am84 °FSunny.9 mph51%30.03 "Hg10 mi
11:35 am84 °FSunny.12 mph51%30.03 "Hg10 mi
11:15 am84 °FSunny.13 mph51%30.04 "Hg10 mi
10:55 am82 °FSunny.10 mph55%30.04 "Hg10 mi
10:35 am82 °FSunny.17 mph55%30.05 "Hg10 mi
10:15 am81 °FSunny.12 mph58%30.05 "Hg10 mi
9:55 am81 °FSunny.15 mph58%30.05 "Hg10 mi
9:35 am79 °FSunny.13 mph61%30.06 "Hg10 mi
9:15 am79 °FSunny.13 mph61%30.07 "Hg10 mi
8:35 am77 °FSunny.12 mph65%30.07 "Hg10 mi
8:15 am75 °FSunny.13 mph69%30.07 "Hg10 mi
7:55 am75 °FSunny.12 mph69%30.07 "Hg10 mi
7:35 am73 °FSunny.9 mph74%30.07 "Hg10 mi
7:15 am73 °FSunny.7 mph78%30.07 "Hg10 mi
6:55 am72 °FSunny.7 mph83%30.06 "Hg10 mi
6:35 am72 °FSunny.6 mph78%30.06 "Hg10 mi
6:15 am70 °FSunny.6 mph83%30.06 "Hg10 mi
5:55 am70 °FSunny.6 mph88%30.05 "Hg10 mi
5:35 am70 °FClear.6 mph88%30.05 "Hg10 mi
5:15 am72 °FClear.6 mph83%30.05 "Hg10 mi
4:55 am72 °FClear.7 mph83%30.04 "Hg10 mi
4:35 am72 °FClear.6 mph83%30.04 "Hg10 mi
4:15 am73 °FClear.7 mph83%30.04 "Hg10 mi
3:55 am73 °FClear.7 mph83%30.03 "Hg10 mi
3:35 am75 °FClear.12 mph78%30.03 "Hg10 mi
3:15 am75 °FClear.10 mph78%30.03 "Hg10 mi
2:35 am75 °FClear.8 mph78%30.03 "HgN/A
2:15 am77 °FClear.9 mph79%30.03 "Hg10 mi
1:55 am77 °FClear.9 mph79%30.03 "Hg10 mi
1:35 am77 °FClear.7 mph79%30.04 "Hg10 mi
1:15 am77 °FClear.7 mph79%30.04 "Hg10 mi
12:55 am79 °FClear.8 mph74%30.04 "Hg10 mi
12:35 am79 °FClear.9 mph79%30.04 "Hg10 mi
12:15 am79 °FClear.7 mph79%30.05 "Hg10 mi
11:55 pm
Sun, Jul 14
81 °FClear.6 mph74%30.04 "Hg10 mi
11:35 pm81 °FPassing clouds.7 mph74%30.04 "Hg10 mi
11:15 pm81 °FPassing clouds.7 mph74%30.04 "Hg10 mi
10:55 pm82 °FPassing clouds.7 mph70%30.04 "Hg10 mi
10:35 pm82 °FPartly cloudy.7 mph74%30.03 "Hg10 mi
10:15 pm82 °FPassing clouds.7 mph70%30.03 "Hg10 mi
9:55 pm82 °FPassing clouds.7 mph70%30.03 "Hg10 mi
9:35 pm81 °FPassing clouds.6 mph74%30.03 "Hg10 mi
9:15 pm82 °FPassing clouds.5 mph70%30.02 "Hg10 mi
8:55 pm82 °FPartly cloudy.6 mph70%30.01 "Hg10 mi
8:35 pm86 °FOvercast.No wind59%30.02 "Hg10 mi
8:15 pm86 °FPartly sunny.No wind59%30.02 "Hg10 mi
7:55 pm88 °FScattered clouds.No wind55%30.02 "Hg10 mi
7:35 pm88 °FSunny.5 mph52%30.03 "Hg10 mi
7:15 pm90 °FSunny.6 mph49%30.02 "Hg10 mi
6:55 pm90 °FSunny.No wind46%30.03 "Hg10 mi
6:35 pm90 °FSunny.5 mph46%30.03 "Hg10 mi
6:15 pm91 °FSunny.5 mph44%30.03 "Hg10 mi
5:55 pm90 °FSunny.7 mph43%30.03 "Hg10 mi
5:35 pm91 °FSunny.8 mph41%30.03 "Hg10 mi
5:15 pm91 °FSunny.12 mph38%30.04 "Hg10 mi
4:55 pm91 °FSunny.9 mph41%30.04 "Hg10 mi
4:35 pm91 °FSunny.9 mph41%30.05 "Hg10 mi
4:15 pm91 °FSunny.8 mph38%30.05 "Hg10 mi
3:35 pm91 °FPassing clouds.12 mph44%30.06 "Hg10 mi
3:15 pm91 °FScattered clouds.9 mph41%30.06 "Hg10 mi
Weather by CustomWeather, © 2019

See weather overview

LIVE PARTIAL LUNAR ECLIPSE – Watch the eclipse as it happens